Time,TemperatureF,DewpointF,PressureIn,WindDirection,WindDirectionDegrees,WindSpeedMPH,WindSpeedGustMPH,Humidity,HourlyPrecipIn,Conditions,Clouds,dailyrainin,SoftwareType,DateUTC
2015-09-03 00:03:00,65.0,-99.9,29.86,SSE,155,6.0,8.0,-999,-99.99,,,-99.99,,2015-09-03 07:03:00,
2015-09-03 00:13:00,65.0,-99.9,29.86,SSE,157,8.0,10.0,-999,-99.99,,,-99.99,,2015-09-03 07:13:00,
2015-09-03 00:23:00,65.0,-99.9,29.86,SSE,157,8.0,10.0,-999,-99.99,,,-99.99,,2015-09-03 07:23:00,
2015-09-03 00:33:00,65.0,-99.9,29.86,SSE,156,10.0,11.0,-999,-99.99,,,-99.99,,2015-09-03 07:33:00,
2015-09-03 01:03:00,64.0,-99.9,29.86,South,177,8.0,11.0,-999,-99.99,,,-99.99,,2015-09-03 08:03:00,
2015-09-03 01:13:00,64.0,-99.9,29.86,SSW,195,4.0,9.0,-999,-99.99,,,-99.99,,2015-09-03 08:13:00,
2015-09-03 01:33:00,65.0,-99.9,29.86,SSW,208,8.0,10.0,-999,-99.99,,,-99.99,,2015-09-03 08:33:00,
2015-09-03 01:44:00,-999.9,-99.9,29.86,SSW,209,8.0,11.0,-999,-99.99,,,-99.99,,2015-09-03 08:44:00,
2015-09-03 02:03:00,64.0,-99.9,29.85,SSW,202,6.0,9.0,-999,-99.99,,,-99.99,,2015-09-03 09:03:00,
2015-09-03 02:13:00,65.0,-99.9,29.85,SW,214,9.0,11.0,-999,-99.99,,,-99.99,,2015-09-03 09:13:00,
2015-09-03 02:33:00,65.0,-99.9,29.85,SW,219,9.0,11.0,-999,-99.99,,,-99.99,,2015-09-03 09:33:00,
2015-09-03 02:44:00,-999.9,-99.9,29.85,SSW,213,10.0,12.0,-999,-99.99,,,-99.99,,2015-09-03 09:44:00,
2015-09-03 02:53:00,65.0,-99.9,29.85,SSW,210,10.0,12.0,-999,-99.99,,,-99.99,,2015-09-03 09:53:00,
2015-09-03 03:03:00,65.0,-99.9,29.85,SW,216,9.0,12.0,-999,-99.99,,,-99.99,,2015-09-03 10:03:00,
2015-09-03 03:13:00,65.0,-99.9,29.85,SW,224,11.0,17.0,-999,-99.99,,,-99.99,,2015-09-03 10:13:00,
2015-09-03 03:24:00,65.0,-99.9,29.85,SW,224,9.0,14.0,-999,-99.99,,,-99.99,,2015-09-03 10:24:00,
2015-09-03 03:33:00,65.0,-99.9,29.85,WSW,240,7.0,11.0,-999,-99.99,,,-99.99,,2015-09-03 10:33:00,
2015-09-03 03:43:00,65.0,-99.9,29.85,WSW,246,11.0,14.0,-999,-99.99,,,-99.99,,2015-09-03 10:43:00,
2015-09-03 04:03:00,64.0,-99.9,29.85,West,267,9.0,12.0,-999,-99.99,,,-99.99,,2015-09-03 11:03:00,
2015-09-03 04:13:00,65.0,-99.9,29.85,West,263,9.0,11.0,-999,-99.99,,,-99.99,,2015-09-03 11:13:00,
2015-09-03 04:34:00,64.0,-99.9,29.85,WSW,254,8.0,10.0,-999,-99.99,,,-99.99,,2015-09-03 11:34:00,
2015-09-03 04:44:00,64.0,-99.9,29.85,West,278,8.0,10.0,-999,-99.99,,,-99.99,,2015-09-03 11:44:00,
2015-09-03 04:54:00,65.0,-99.9,29.85,WSW,242,6.0,10.0,-999,-99.99,,,-99.99,,2015-09-03 11:54:00,
2015-09-03 05:03:00,64.0,-99.9,29.85,SW,229,7.0,9.0,-999,-99.99,,,-99.99,,2015-09-03 12:03:00,
2015-09-03 05:13:00,64.0,-99.9,29.85,SSW,207,5.0,9.0,-999,-99.99,,,-99.99,,2015-09-03 12:13:00,
2015-09-03 05:34:00,64.0,-99.9,29.85,South,181,8.0,9.0,-999,-99.99,,,-99.99,,2015-09-03 12:34:00,
2015-09-03 06:04:00,64.0,-99.9,29.85,SE,139,2.0,3.0,-999,-99.99,,,-99.99,,2015-09-03 13:04:00,
2015-09-03 06:13:00,64.0,-99.9,29.85,West,259,2.0,5.0,-999,-99.99,,,-99.99,,2015-09-03 13:13:00,
2015-09-03 06:44:00,64.0,-99.9,29.85,SW,222,12.0,17.0,-999,-99.99,,,-99.99,,2015-09-03 13:44:00,
2015-09-03 06:53:00,63.0,-99.9,29.85,SW,225,9.0,13.0,-999,-99.99,,,-99.99,,2015-09-03 13:53:00,
2015-09-03 07:03:00,63.0,-99.9,29.86,SW,226,11.0,13.0,-999,-99.99,,,-99.99,,2015-09-03 14:03:00,
2015-09-03 07:13:00,63.0,-99.9,29.86,SW,214,11.0,14.0,-999,-99.99,,,-99.99,,2015-09-03 14:13:00,
2015-09-03 07:23:00,63.0,-99.9,29.86,SW,214,11.0,14.0,-999,-99.99,,,-99.99,,2015-09-03 14:23:00,
2015-09-03 07:33:00,63.0,-99.9,29.87,SSW,211,9.0,12.0,-999,-99.99,,,-99.99,,2015-09-03 14:33:00,
2015-09-03 07:44:00,63.0,-99.9,29.87,SW,216,9.0,15.0,-999,-99.99,,,-99.99,,2015-09-03 14:44:00,
2015-09-03 07:53:00,63.0,-99.9,29.87,SW,214,11.0,15.0,-999,-99.99,,,-99.99,,2015-09-03 14:53:00,
2015-09-03 08:13:00,63.0,-99.9,29.88,SW,215,13.0,17.0,-999,-99.99,,,-99.99,,2015-09-03 15:13:00,
2015-09-03 08:34:00,63.0,-99.9,29.88,SW,217,15.0,18.0,-999,-99.99,,,-99.99,,2015-09-03 15:34:00,
2015-09-03 08:44:00,63.0,-99.9,29.88,SW,229,15.0,19.0,-999,-99.99,,,-99.99,,2015-09-03 15:44:00,
2015-09-03 09:03:00,64.0,-99.9,29.89,SW,229,13.0,15.0,-999,-99.99,,,-99.99,,2015-09-03 16:03:00,
2015-09-03 09:24:00,64.0,-99.9,29.89,WSW,247,16.0,19.0,-999,-99.99,,,-99.99,,2015-09-03 16:24:00,
2015-09-03 09:33:00,65.0,-99.9,29.89,WSW,250,17.0,20.0,-999,-99.99,,,-99.99,,2015-09-03 16:33:00,
2015-09-03 10:03:00,65.0,-99.9,29.89,WSW,253,16.0,20.0,-999,-99.99,,,-99.99,,2015-09-03 17:03:00,
2015-09-03 10:13:00,65.0,-99.9,29.89,West,266,12.0,20.0,-999,-99.99,,,-99.99,,2015-09-03 17:13:00,
2015-09-03 10:34:00,66.0,-99.9,29.89,SW,235,7.0,17.0,-999,-99.99,,,-99.99,,2015-09-03 17:34:00,
2015-09-03 10:44:00,66.0,-99.9,29.89,WSW,251,11.0,14.0,-999,-99.99,,,-99.99,,2015-09-03 17:44:00,
2015-09-03 11:05:00,66.0,-99.9,29.89,WNW,295,13.0,19.0,-999,-99.99,,,-99.99,,2015-09-03 18:05:00,
2015-09-03 11:13:00,66.0,-99.9,29.89,WNW,284,9.0,14.0,-999,-99.99,,,-99.99,,2015-09-03 18:13:00,
2015-09-03 11:34:00,67.0,-99.9,29.89,WNW,296,9.0,12.0,-999,-99.99,,,-99.99,,2015-09-03 18:34:00,
2015-09-03 11:54:00,67.0,-99.9,29.88,West,281,6.0,11.0,-999,-99.99,,,-99.99,,2015-09-03 18:54:00,
2015-09-03 12:15:00,69.0,-99.9,29.88,SW,221,9.0,13.0,-999,-99.99,,,-99.99,,2015-09-03 19:15:00,
2015-09-03 12:34:00,70.0,-99.9,29.87,WSW,239,9.0,11.0,-999,-99.99,,,-99.99,,2015-09-03 19:34:00,
2015-09-03 12:45:00,70.0,-99.9,29.87,SW,229,10.0,15.0,-999,-99.99,,,-99.99,,2015-09-03 19:45:00,
2015-09-03 13:34:00,71.0,-99.9,29.86,WSW,240,11.0,15.0,-999,-99.99,,,-99.99,,2015-09-03 20:34:00,
2015-09-03 13:44:00,72.0,-99.9,29.85,SW,222,11.0,15.0,-999,-99.99,,,-99.99,,2015-09-03 20:44:00,
2015-09-03 13:54:00,72.0,-99.9,29.85,WSW,239,13.0,15.0,-999,-99.99,,,-99.99,,2015-09-03 20:54:00,
2015-09-03 14:04:00,72.0,-99.9,29.85,SW,236,10.0,14.0,-999,-99.99,,,-99.99,,2015-09-03 21:04:00,
2015-09-03 14:34:00,72.0,-99.9,29.84,WSW,239,9.0,14.0,-999,-99.99,,,-99.99,,2015-09-03 21:34:00,
2015-09-03 14:44:00,72.0,-99.9,29.84,SW,220,12.0,15.0,-999,-99.99,,,-99.99,,2015-09-03 21:44:00,
2015-09-03 14:54:00,72.0,-99.9,29.84,SW,231,12.0,17.0,-999,-99.99,,,-99.99,,2015-09-03 21:54:00,
2015-09-03 15:34:00,72.0,-99.9,29.83,SSW,207,11.0,16.0,-999,-99.99,,,-99.99,,2015-09-03 22:34:00,
2015-09-03 15:44:00,72.0,-99.9,29.82,SW,234,12.0,15.0,-999,-99.99,,,-99.99,,2015-09-03 22:44:00,
2015-09-03 16:13:00,72.0,-99.9,29.81,SW,226,15.0,17.0,-999,-99.99,,,-99.99,,2015-09-03 23:13:00,
2015-09-03 16:36:00,72.0,-99.9,29.80,SW,226,10.0,14.0,-999,-99.99,,,-99.99,,2015-09-03 23:36:00,
2015-09-03 16:44:00,72.0,-99.9,29.80,SW,226,10.0,14.0,-999,-99.99,,,-99.99,,2015-09-03 23:44:00,
2015-09-03 17:04:00,73.0,-99.9,29.80,SW,227,11.0,15.0,-999,-99.99,,,-99.99,,2015-09-04 00:04:00,
2015-09-03 17:13:00,72.0,-99.9,29.80,SW,218,11.0,14.0,-999,-99.99,,,-99.99,,2015-09-04 00:13:00,
2015-09-03 17:44:00,72.0,-99.9,29.79,SW,223,13.0,15.0,-999,-99.99,,,-99.99,,2015-09-04 00:44:00,
2015-09-03 18:13:00,72.0,-99.9,29.79,SW,220,12.0,15.0,-999,-99.99,,,-99.99,,2015-09-04 01:13:00,
2015-09-03 18:34:00,72.0,-99.9,29.79,SW,228,11.0,14.0,-999,-99.99,,,-99.99,,2015-09-04 01:34:00,
2015-09-03 18:44:00,71.0,-99.9,29.79,SW,228,11.0,14.0,-999,-99.99,,,-99.99,,2015-09-04 01:44:00,
2015-09-03 19:13:00,70.0,-99.9,29.79,WSW,237,8.0,12.0,-999,-99.99,,,-99.99,,2015-09-04 02:13:00,
2015-09-03 19:33:00,69.0,-99.9,29.79,SW,233,6.0,9.0,-999,-99.99,,,-99.99,,2015-09-04 02:33:00,
2015-09-03 19:44:00,68.0,-99.9,29.79,SW,220,10.0,11.0,-999,-99.99,,,-99.99,,2015-09-04 02:44:00,
2015-09-03 20:03:00,68.0,-99.9,29.78,SW,222,6.0,9.0,-999,-99.99,,,-99.99,,2015-09-04 03:03:00,
2015-09-03 20:23:00,68.0,-99.9,29.78,SW,232,2.0,6.0,-999,-99.99,,,-99.99,,2015-09-04 03:23:00,
2015-09-03 20:34:00,67.0,-99.9,29.78,SSW,207,4.0,8.0,-999,-99.99,,,-99.99,,2015-09-04 03:34:00,
2015-09-03 20:44:00,67.0,-99.9,29.78,South,170,3.0,5.0,-999,-99.99,,,-99.99,,2015-09-04 03:44:00,
2015-09-03 21:13:00,66.0,-99.9,29.78,SE,144,5.0,8.0,-999,-99.99,,,-99.99,,2015-09-04 04:13:00,
2015-09-03 21:34:00,65.0,-99.9,29.79,SSE,161,5.0,9.0,-999,-99.99,,,-99.99,,2015-09-04 04:34:00,
2015-09-03 21:44:00,65.0,-99.9,29.79,SE,135,4.0,7.0,-999,-99.99,,,-99.99,,2015-09-04 04:44:00,
2015-09-03 22:34:00,64.0,-99.9,29.79,SSE,149,7.0,8.0,-999,-99.99,,,-99.99,,2015-09-04 05:34:00,
2015-09-03 22:44:00,63.0,-99.9,29.79,SSE,151,6.0,7.0,-999,-99.99,,,-99.99,,2015-09-04 05:44:00,
2015-09-03 23:13:00,63.0,-99.9,29.79,SSE,168,4.0,5.0,-999,-99.99,,,-99.99,,2015-09-04 06:13:00,
2015-09-03 23:34:00,62.0,-99.9,29.79,SE,146,5.0,5.0,-999,-99.99,,,-99.99,,2015-09-04 06:34:00,
2015-09-03 23:44:00,62.0,-99.9,29.80,SSE,159,4.0,4.0,-999,-99.99,,,-99.99,,2015-09-04 06:44:00,